Wind_Speed
14 14 14 15 15 15 16 17 16 14 14 14 13 13 12 12 11 11 11 11 10 10 9 8 8 8 9 9 8 8 8 8 8 7 6 7 6 5 5 4 4 4 3 3 3 2 2 3 2
14 14 14 15 15 14 16 17 16 15 14 13 13 12 12 11 11 10 10 10 10 10 10 9 9 8 9 9 8 8 7 6 7 6 6 6 6 5 4 3 3 3 2 2 2 2 2 2 1
14 13 14 14 15 15 16 16 16 15 14 13 13 12 11 10 10 10 10 10 10 10 10 10 9 9 9 9 8 8 7 7 6 6 5 5 5 5 4 3 3 2 2 2 1 1 1 1 1
14 14 14 15 15 16 16 17 16 16 14 13 12 11 10 10 9 9 9 9 9 10 10 10 9 9 9 9 9 8 7 6 6 6 5 5 4 4 3 3 2 1 1 1 1 1 0 0 1
13 14 15 16 16 16 17 17 17 17 15 14 12 11 10 10 9 9 9 9 9 9 9 10 9 9 9 9 8 7 6 6 5 5 4 3 3 3 3 2 1 1 0 1 2 2 1 1 2
14 14 15 16 17 17 18 18 18 17 16 15 13 12 10 9 9 8 9 9 9 9 9 9 9 9 8 8 7 7 5 5 4 4 3 2 2 2 1 1 1 0 1 2 2 2 2 2 3
14 14 15 16 17 17 18 18 18 17 16 15 14 12 11 9 8 8 8 8 8 8 8 8 9 8 7 7 6 5 5 4 3 3 2 2 1 1 1 1 1 1 2 3 2 3 3 3 3
12 13 14 15 16 17 18 18 17 16 15 15 14 13 11 9 8 8 8 8 7 7 8 8 8 8 7 7 6 4 4 4 3 3 2 2 1 0 1 2 3 3 3 3 3 4 3 4 4
11 12 13 14 15 16 17 17 16 15 15 15 14 13 11 10 9 8 8 8 7 7 7 8 8 8 7 7 6 5 4 3 3 3 2 2 1 1 2 2 3 4 4 4 4 4 5 5 6
10 11 13 14 14 15 16 16 16 15 15 14 14 13 11 11 10 9 8 8 7 7 7 7 7 7 6 6 5 4 4 3 3 3 3 3 2 2 3 3 3 3 4 4 5 5 5 6 6
9 11 12 13 14 14 15 15 15 15 15 14 14 12 11 10 10 9 8 7 7 7 7 6 6 7 6 6 6 5 4 4 4 3 3 3 3 3 3 4 4 4 4 4 5 5 6 6 7
8 9 11 13 14 14 15 15 14 14 14 14 14 12 11 11 10 9 9 8 7 7 7 7 6 6 6 6 6 5 5 4 5 5 4 3 3 3 3 4 4 4 4 4 5 6 6 6 7
6 7 9 11 12 13 13 13 13 13 14 14 14 13 11 10 10 9 9 8 8 8 7 7 7 6 6 6 5 5 6 5 5 5 4 4 4 3 3 4 3 4 4 4 4 4 5 6 7
6 6 7 8 9 10 11 12 11 11 12 13 13 13 12 11 10 10 9 9 8 7 7 8 8 8 7 7 6 5 5 6 6 5 5 5 5 4 4 4 4 4 4 5 5 4 5 7 7
4 6 6 7 8 9 10 11 11 11 11 11 11 12 12 11 10 10 9 9 8 8 8 8 8 8 8 8 6 6 6 6 7 6 5 5 4 4 4 4 4 5 6 6 6 6 7 8 9
3 4 6 6 7 8 8 10 10 11 11 11 10 11 11 10 10 10 9 8 8 8 8 8 7 7 7 7 7 7 7 6 7 7 7 6 5 4 4 5 5 6 7 7 8 7 8 8 9
3 3 3 4 4 6 7 8 9 9 9 10 10 10 10 10 10 10 9 8 7 8 8 8 8 7 7 7 7 7 7 7 7 7 7 7 6 6 5 6 6 6 7 8 8 8 9 9 9
4 3 0 1 1 3 4 6 7 7 8 9 9 9 9 9 10 10 8 7 7 7 8 8 8 7 7 7 7 7 7 7 7 7 7 7 7 7 6 6 7 7 7 8 9 9 10 11 11
7 5 4 3 3 3 2 2 4 5 7 8 8 7 8 8 9 10 8 7 7 8 8 7 8 8 8 7 7 7 8 8 8 7 7 7 8 8 7 7 8 8 8 10 11 10 11 11 11
9 8 7 6 6 6 4 3 3 3 5 6 7 7 7 7 8 8 9 7 8 8 8 7 7 8 8 8 7 8 8 8 8 8 7 8 8 8 9 8 9 9 9 10 11 10 11 12 12
11 10 10 9 10 9 8 6 5 4 4 5 7 7 6 7 7 7 7 8 8 8 7 7 7 8 8 8 8 8 9 10 9 10 9 9 9 10 11 10 10 10 10 11 10 10 11 12 13
14 13 12 12 12 11 11 10 7 6 6 6 6 7 6 6 5 5 6 7 8 8 7 7 7 8 9 9 9 10 10 10 10 10 10 10 11 11 12 11 11 11 11 12 12 11 11 12 13
15 15 15 15 15 14 13 12 10 9 8 7 7 6 6 5 5 5 6 7 7 8 8 8 8 9 10 10 10 11 10 11 11 11 11 12 12 12 13 13 12 12 13 13 13 12 12 12 13
17 16 17 16 16 15 15 15 12 11 10 9 8 7 7 7 7 6 7 7 7 8 8 8 9 10 10 11 11 11 11 12 12 13 12 12 13 14 14 14 14 15 14 14 15 14 13 14 14
18 18 19 18 18 17 17 18 14 12 12 11 10 9 9 9 8 8 8 8 9 9 9 9 10 11 12 12 12 13 13 13 13 14 14 14 14 15 15 16 17 17 16 16 16 16 15 15 15
20 20 20 20 20 19 19 19 16 14 13 13 12 13 12 11 11 10 10 10 10 10 11 11 11 12 13 14 14 14 15 15 15 15 15 16 16 16 17 18 19 19 18 17 17 17 17 17 18
23 22 22 23 23 23 22 21 18 16 15 15 15 15 15 14 13 13 13 12 12 12 12 12 12 13 14 15 16 16 16 17 17 17 17 18 18 19 19 19 20 20 20 19 19 18 19 19 20
25 24 24 25 25 25 24 22 20 19 18 17 17 18 18 17 17 16 15 15 14 14 14 15 15 15 16 17 18 18 18 18 19 19 19 20 20 20 21 21 21 21 21 20 20 20 20 21 22
26 26 26 27 27 27 26 24 21 21 20 19 19 19 19 19 19 18 17 17 17 17 17 18 18 18 19 19 20 21 20 20 20 20 21 21 21 22 22 23 23 22 21 21 22 22 23 23 24
27 27 27 27 27 27 27 25 22 22 21 21 21 21 21 20 20 20 20 19 20 20 20 19 20 21 21 22 22 22 23 23 22 22 22 22 23 23 24 25 25 24 24 24 24 24 25 25 26
Wind_Direction
77 75 73 71 71 73 71 71 69 68 65 64 63 63 62 63 67 66 63 61 57 59 66 70 77 83 83 83 83 80 81 84 88 89 89 90 86 89 103 114 121 127 128 121 124 127 132 127 114
77 76 76 70 70 72 70 66 65 65 64 61 59 59 59 61 64 64 65 63 60 59 68 74 75 82 82 81 81 78 78 84 86 84 88 89 89 86 87 110 132 146 154 139 131 143 154 143 127
77 76 74 72 69 70 69 67 63 61 61 61 60 59 58 60 65 68 69 68 65 64 69 73 71 76 76 77 78 79 84 90 86 82 84 84 89 87 79 86 128 141 164 165 153 158 159 150 150
77 77 74 71 69 68 68 66 64 61 60 59 59 58 58 60 67 70 70 69 68 67 69 71 72 71 72 76 77 81 88 89 85 82 82 87 86 83 82 86 109 131 154 221 235 230 230 193 194
79 76 71 68 69 68 67 64 60 58 55 51 52 52 56 61 65 69 69 70 69 66 67 70 67 67 74 76 76 83 85 80 82 82 81 86 87 81 86 91 95 122 231 264 246 236 259 271 267
79 75 71 68 67 65 63 62 58 55 51 48 49 49 54 57 62 67 69 69 70 65 64 67 62 63 67 71 75 78 81 72 70 75 79 78 89 94 118 127 161 187 244 259 255 237 262 271 267
80 77 70 66 65 66 64 62 58 55 53 49 46 46 53 57 60 64 67 64 63 61 59 58 58 59 65 73 77 78 74 58 54 61 71 65 65 102 215 244 258 246 252 250 247 259 260 262 262
80 74 68 65 64 63 65 62 58 54 51 48 45 45 52 57 62 64 65 63 61 59 59 61 60 64 68 72 73 67 62 52 46 48 56 55 39 349 255 262 261 273 268 254 253 265 262 256 252
82 70 65 65 64 63 62 61 58 53 48 47 44 46 51 56 60 59 60 62 61 61 63 64 62 60 54 56 63 57 52 41 34 32 22 15 354 318 289 267 259 265 272 263 261 265 253 248 250
81 71 66 64 66 65 62 59 57 54 50 47 46 47 50 54 53 56 58 58 60 61 63 59 52 49 47 47 44 34 30 23 15 8 355 329 315 299 288 271 277 282 280 268 259 261 255 250 250
84 79 74 69 68 66 62 59 54 52 50 47 48 49 48 51 52 53 54 53 56 58 58 51 45 43 39 38 32 27 22 19 11 3 353 328 314 305 295 278 279 284 281 268 265 256 253 254 254
91 83 77 74 71 70 66 61 54 50 51 48 47 46 46 50 47 45 46 45 45 52 55 53 46 41 34 27 29 33 28 22 6 354 349 332 311 302 298 292 282 282 280 278 275 260 255 251 256
99 89 78 71 69 69 65 59 54 53 52 47 43 41 41 45 45 44 43 41 43 49 49 51 46 39 30 23 30 27 19 13 2 358 347 331 322 318 314 312 296 291 288 291 288 264 262 257 260
104 95 74 63 65 65 60 56 51 51 48 45 42 39 38 40 43 44 41 40 40 41 44 45 43 39 34 31 29 23 18 13 3 353 342 330 322 315 306 302 298 299 303 302 291 276 269 267 269
109 101 80 68 65 57 53 52 50 48 46 41 39 37 36 36 40 40 37 37 37 37 38 40 38 35 33 31 35 29 23 9 2 355 347 338 328 309 306 297 296 293 291 286 282 273 270 268 266
123 109 93 77 68 52 46 45 43 41 40 39 35 31 34 38 37 35 32 31 34 34 33 33 34 31 28 31 33 29 22 12 6 359 352 346 342 326 308 302 298 290 289 288 284 280 270 267 263
176 129 99 79 64 44 40 42 43 36 32 34 33 30 30 34 34 31 28 30 32 31 28 26 27 26 26 25 27 26 21 13 5 2 1 1 354 349 339 330 317 307 299 292 284 277 274 270 261
217 214 162 20 32 23 38 45 40 33 21 22 26 30 27 28 31 27 28 30 31 29 26 26 25 24 25 25 26 24 19 12 6 6 9 8 7 0 342 331 322 317 311 302 292 283 277 268 261
232 235 246 271 297 316 347 8 14 19 8 5 10 19 26 26 25 25 28 32 34 27 26 26 23 23 22 21 20 17 14 10 6 5 7 5 2 358 348 336 327 317 312 308 306 292 283 273 268
235 237 248 258 281 289 283 294 305 338 348 356 0 6 14 22 21 20 19 24 25 21 19 21 20 16 14 13 10 6 5 2 356 355 356 351 347 342 335 330 327 322 317 315 308 302 292 284 277
238 240 250 256 269 278 281 287 291 299 321 336 348 354 6 12 16 14 13 12 14 12 9 9 7 3 1 357 352 350 352 350 348 347 344 342 340 335 330 327 323 320 320 320 316 308 301 292 287
243 247 249 258 266 270 274 283 281 281 294 309 323 334 340 350 357 355 356 3 2 358 355 353 350 351 349 346 343 340 339 340 340 341 338 338 335 334 330 328 324 323 323 318 315 312 307 300 293
248 250 250 257 264 268 272 276 279 280 281 293 301 308 313 322 331 333 337 346 347 344 339 339 342 341 341 340 335 333 330 328 329 332 331 331 330 330 327 324 321 318 320 320 315 308 308 306 300
249 250 253 259 267 267 273 279 279 278 280 284 290 295 298 306 313 319 325 329 334 336 335 333 334 334 331 329 326 324 322 321 320 322 321 323 324 325 324 322 319 313 311 312 312 308 305 302 303
248 253 257 263 265 266 269 272 277 275 275 276 281 286 290 296 303 309 315 313 316 320 324 322 323 323 322 320 317 316 316 318 316 316 313 313 316 317 318 318 317 311 306 305 308 308 306 303 300
249 253 258 265 266 265 266 270 273 272 271 273 278 286 291 291 297 301 303 304 304 307 311 312 313 315 316 316 313 311 311 313 313 312 311 310 310 311 312 314 315 313 308 305 304 304 303 301 300
248 251 256 262 265 266 266 268 269 268 266 269 273 280 286 289 294 296 297 296 298 300 301 303 304 306 308 310 310 308 309 310 310 310 308 308 307 307 308 310 311 310 306 304 302 301 301 299 298
247 250 255 259 264 267 269 268 269 268 267 269 271 276 282 285 289 293 294 295 297 297 297 297 298 300 303 304 305 304 304 306 307 307 307 306 304 304 305 306 307 306 303 301 300 299 298 297 297
246 250 253 257 261 266 270 271 271 267 268 270 273 277 280 282 284 288 289 289 292 293 295 296 295 296 298 299 300 300 298 301 303 303 304 305 303 303 304 305 306 306 302 299 298 295 295 295 294
249 251 253 256 260 265 269 272 271 268 269 272 275 277 277 278 279 283 285 285 286 288 290 291 293 293 293 294 294 295 296 297 297 299 300 301 301 302 302 302 303 304 303 300 297 295 294 294 294
Height
5894 5894 5894 5894 5894 5893 5891 5891 5890 5890 5890 5889 5889 5889 5889 5889 5889 5891 5889 5887 5886 5885 5884 5884 5884 5884 5884 5884 5884 5884 5885 5885 5885 5886 5886 5887 5888 5888 5889 5889 5890 5891 5892 5892 5893 5893 5894 5895 5895
5897 5896 5897 5896 5895 5894 5893 5892 5892 5891 5891 5891 5891 5890 5890 5890 5890 5889 5889 5888 5887 5886 5884 5885 5885 5885 5885 5885 5885 5885 5886 5886 5887 5887 5888 5888 5889 5889 5889 5890 5890 5891 5892 5893 5893 5894 5895 5895 5896
5899 5899 5899 5898 5896 5896 5895 5894 5894 5893 5893 5892 5892 5892 5892 5891 5891 5890 5890 5889 5889 5888 5887 5887 5887 5887 5886 5886 5886 5887 5887 5887 5888 5888 5889 5889 5890 5890 5890 5890 5890 5892 5892 5893 5894 5894 5895 5895 5896
5902 5902 5901 5900 5898 5898 5897 5896 5895 5895 5894 5894 5894 5894 5893 5893 5892 5892 5891 5891 5890 5890 5889 5888 5888 5888 5888 5887 5887 5888 5888 5889 5889 5889 5890 5890 5890 5891 5891 5891 5892 5892 5893 5893 5894 5894 5895 5895 5896
5903 5903 5903 5901 5900 5899 5898 5898 5897 5897 5896 5896 5895 5894 5894 5894 5894 5893 5893 5892 5892 5891 5891 5890 5890 5889 5889 5889 5889 5889 5889 5890 5890 5890 5890 5891 5891 5891 5892 5892 5892 5893 5893 5894 5894 5894 5895 5895 5895
5906 5905 5905 5903 5902 5901 5900 5899 5899 5899 5898 5897 5897 5896 5896 5895 5895 5894 5894 5893 5893 5893 5892 5892 5891 5890 5890 5890 5890 5890 5890 5891 5891 5891 5891 5891 5891 5892 5892 5892 5892 5893 5893 5893 5894 5894 5894 5895 5895
5908 5907 5906 5905 5904 5903 5903 5901 5901 5900 5900 5899 5899 5898 5897 5897 5896 5896 5895 5895 5894 5894 5893 5893 5892 5891 5891 5891 5891 5891 5891 5891 5891 5891 5891 5891 5891 5891 5892 5892 5892 5892 5892 5892 5893 5893 5894 5894 5894
5910 5910 5908 5907 5906 5906 5905 5903 5903 5902 5901 5901 5900 5899 5899 5898 5898 5897 5896 5896 5895 5895 5894 5894 5893 5892 5891 5891 5891 5891 5892 5892 5892 5892 5892 5892 5892 5891 5892 5892 5892 5892 5892 5892 5892 5893 5893 5894 5894
5912 5912 5910 5909 5908 5908 5907 5906 5905 5904 5903 5902 5901 5901 5901 5900 5899 5898 5897 5897 5896 5896 5895 5895 5894 5893 5893 5892 5892 5892 5892 5892 5892 5892 5892 5891 5891 5891 5891 5891 5891 5891 5891 5891 5891 5892 5892 5893 5893
5913 5913 5912 5911 5910 5909 5909 5908 5907 5907 5905 5904 5903 5902 5901 5901 5900 5899 5899 5898 5897 5897 5896 5896 5895 5895 5894 5893 5893 5893 5892 5892 5892 5892 5891 5891 5891 5891 5891 5891 5890 5890 5890 5890 5890 5890 5891 5891 5892
5914 5914 5914 5913 5912 5911 5911 5910 5909 5908 5907 5906 5905 5904 5903 5902 5902 5901 5900 5899 5898 5898 5897 5896 5896 5895 5895 5894 5893 5893 5893 5892 5892 5891 5891 5891 5890 5890 5890 5890 5890 5890 5890 5889 5889 5889 5889 5890 5891
5916 5915 5915 5914 5914 5913 5913 5912 5911 5910 5909 5908 5906 5905 5904 5903 5903 5902 5901 5900 5900 5899 5898 5897 5897 5896 5895 5894 5894 5893 5893 5892 5892 5891 5891 5890 5890 5890 5890 5889 5889 5889 5889 5888 5888 5888 5888 5889 5890
5917 5917 5916 5915 5915 5915 5914 5914 5913 5912 5911 5910 5908 5907 5906 5905 5904 5903 5902 5901 5900 5899 5899 5898 5897 5897 5896 5895 5894 5894 5893 5893 5892 5891 5890 5890 5890 5889 5889 5889 5889 5888 5888 5888 5887 5887 5887 5888 5888
5918 5917 5917 5916 5916 5916 5915 5915 5914 5914 5913 5911 5910 5909 5907 5906 5905 5904 5903 5902 5901 5900 5899 5898 5898 5897 5897 5896 5895 5894 5893 5893 5892 5891 5890 5890 5889 5889 5888 5888 5888 5888 5887 5887 5887 5887 5886 5886 5887
5918 5919 5918 5918 5917 5917 5917 5916 5915 5915 5914 5913 5912 5910 5909 5907 5906 5906 5905 5904 5902 5901 5900 5899 5898 5898 5897 5896 5895 5894 5893 5893 5892 5891 5890 5889 5888 5888 5888 5888 5887 5887 5887 5886 5886 5885 5885 5885 5885
5919 5919 5919 5919 5918 5918 5919 5917 5917 5916 5915 5914 5913 5911 5909 5908 5907 5906 5905 5904 5903 5902 5901 5900 5899 5898 5897 5896 5895 5894 5894 5892 5891 5890 5889 5888 5888 5887 5887 5886 5886 5885 5885 5885 5884 5884 5884 5884 5884
5919 5919 5919 5919 5918 5918 5918 5917 5917 5917 5916 5914 5913 5912 5910 5909 5907 5907 5905 5904 5903 5902 5901 5901 5900 5899 5898 5897 5896 5895 5894 5892 5891 5890 5889 5888 5887 5887 5886 5886 5885 5884 5884 5883 5883 5882 5882 5882 5882
5919 5918 5919 5919 5919 5918 5918 5918 5917 5917 5916 5915 5914 5912 5911 5910 5909 5908 5906 5905 5904 5903 5902 5901 5900 5899 5898 5897 5896 5895 5894 5893 5891 5890 5889 5888 5887 5886 5886 5885 5884 5883 5882 5882 5881 5880 5880 5879 5879
5918 5918 5918 5919 5918 5918 5917 5918 5917 5917 5916 5915 5914 5913 5912 5910 5909 5908 5907 5905 5905 5904 5903 5902 5901 5900 5899 5897 5896 5895 5894 5893 5892 5890 5889 5888 5888 5886 5885 5884 5883 5882 5881 5880 5879 5878 5877 5876 5876
5916 5917 5918 5918 5918 5917 5917 5917 5917 5917 5916 5915 5914 5913 5912 5911 5909 5908 5907 5906 5905 5904 5903 5902 5901 5900 5899 5898 5897 5896 5894 5893 5892 5890 5889 5888 5887 5886 5885 5883 5882 5881 5879 5878 5876 5875 5874 5874 5873
5915 5916 5916 5917 5917 5916 5917 5917 5917 5916 5915 5915 5914 5913 5912 5911 5910 5909 5908 5907 5906 5904 5903 5902 5902 5900 5899 5898 5897 5895 5894 5893 5891 5890 5889 5888 5887 5885 5884 5882 5881 5880 5878 5876 5874 5873 5872 5871 5871
5914 5914 5915 5915 5915 5915 5916 5916 5916 5915 5915 5914 5914 5913 5912 5911 5910 5909 5908 5907 5905 5904 5903 5902 5901 5900 5899 5898 5896 5895 5894 5892 5891 5890 5888 5887 5886 5884 5883 5881 5880 5878 5877 5875 5873 5871 5870 5869 5868
5911 5912 5913 5913 5913 5913 5914 5914 5915 5914 5913 5913 5913 5912 5911 5910 5909 5908 5907 5906 5905 5904 5903 5902 5901 5899 5898 5897 5895 5894 5893 5891 5890 5889 5887 5885 5884 5883 5881 5880 5878 5876 5875 5873 5871 5869 5868 5867 5866
5908 5909 5910 5910 5910 5911 5911 5912 5912 5912 5912 5912 5911 5911 5910 5909 5908 5907 5906 5905 5904 5903 5902 5901 5900 5899 5897 5896 5894 5893 5891 5890 5889 5887 5886 5884 5883 5881 5879 5878 5876 5874 5872 5871 5869 5867 5866 5864 5863
5906 5907 5907 5907 5907 5908 5909 5908 5910 5910 5910 5909 5909 5909 5908 5907 5906 5905 5904 5904 5902 5901 5900 5899 5898 5897 5895 5894 5892 5891 5890 5888 5887 5885 5884 5882 5881 5879 5877 5875 5873 5871 5870 5868 5867 5865 5864 5862 5861
5902 5903 5904 5904 5904 5906 5906 5905 5908 5907 5907 5907 5907 5906 5905 5905 5904 5903 5902 5901 5900 5899 5898 5897 5896 5895 5893 5891 5890 5889 5887 5885 5884 5882 5881 5879 5878 5876 5875 5873 5870 5868 5866 5865 5864 5862 5860 5859 5857
5897 5898 5900 5900 5900 5901 5901 5902 5903 5904 5904 5904 5904 5903 5903 5902 5902 5900 5899 5898 5897 5896 5895 5894 5892 5891 5890 5889 5887 5885 5884 5882 5880 5879 5877 5876 5874 5872 5871 5869 5867 5865 5863 5861 5859 5858 5856 5854 5853
5893 5894 5895 5896 5895 5895 5896 5897 5899 5900 5900 5901 5900 5900 5899 5899 5898 5897 5896 5895 5894 5893 5892 5890 5889 5887 5886 5885 5883 5882 5880 5878 5876 5875 5873 5871 5869 5868 5866 5865 5863 5861 5858 5857 5855 5853 5852 5850 5848
5888 5889 5890 5891 5891 5891 5891 5895 5895 5895 5896 5896 5896 5896 5895 5895 5894 5893 5892 5891 5890 5889 5887 5886 5884 5883 5881 5880 5879 5877 5875 5873 5872 5870 5869 5867 5865 5863 5862 5860 5858 5856 5854 5852 5850 5848 5846 5844 5842
5882 5883 5885 5886 5886 5886 5886 5891 5890 5890 5891 5891 5891 5891 5890 5890 5889 5888 5887 5886 5885 5884 5882 5881 5879 5877 5876 5875 5873 5872 5870 5869 5867 5865 5863 5862 5860 5858 5856 5854 5852 5850 5848 5846 5844 5842 5840 5838 5836